CZ-6A DEB, 61799

Orbit data source: Space-Track

CZ-6A DEB, 61799 is space debris in LEO originally from a launch on Tue, 06 Aug 2024 UTC launched from the Taiyaun Space Center, China (TSC). Debris objects in space refer to the collection of defunct objects orbiting the Earth. Examples of debris include non-operational satellites, rocket bodies, and fragments generated from explosions, collisions, or faulty payload assembly.

Loading next visibility...
Identifier
61799, 2024-140ABP
Orbit
LEO
Country
Flag of CNCN / PRC
Related business
Manufacturer
SAST
Mission
Spacecraft
Bus & Motor
Unknown
Mass
Unknown
Launch date (UTC)
2024-08-06 (2 years ago)
Launch vehicle
Unknown
Launch site
Taiyaun Space Center, China (TSC)
Object type
Payload
Rocket body
Debris
Shape & HBR
Unknown shape, 0.1 m
Radar Cross Section
Medium (>0.1 m² and <1 m²)

Expand to show TLE details & history
Last TLE update: 2 days ago

TLE from 2 days ago
0 CZ-6A DEB
1 61799U 24140ABP 26170.11159246  .00000312  00000-0  22600-3 0  9997
2 61799  88.2119 221.3142 0299226 308.5161  48.9516 13.75281663 90703
Epoch: 2026-06-19T02:40Z
TLE epoch observation values (Epoch: 2026-06-19T02:40:41.588Z)
Latitude
0.00001°
Longitude
-86.20434°
Altitude
842.89 km
Speed
7.502 km/s
True Right ascension
14h 45m 15s
True Declination
0° 00' 00"
Sunlit
Object was in full shadow at epoch
Visualization orbit readout
Latitude
Unknown
Longitude
Unknown
Altitude
Unknown
Speed
Unknown
Apparent Right ascension
Unknown
Apparent Declination
Unknown
Sunlit
N/A
Visualization observer readout
Local Sidereal Time
07:20:26
Azimuth
Unknown
Elevation
Unknown
Doppler factor
Unknown
Orbital elements
Apogee altitude
1,197.793 km
Perigee altitude
757.582 km
Semi-major axis
7,355.825 km
Eccentricity
0.02992
Inclination
88.2119°
RAAN
221.3142°
Arg. of periapsis
308.5161°
True anomaly
51.60161°
Mean anomaly
48.9516°
Eccentric anomaly
50.27012°
Mean motion
3.4403 °/min
Orbital period
104.64 mins
BSTAR
0.000226
Loading maneuver chart data...
Computing Atmospheric mass density...
Loading historical data...
Loading historical data...
Loading historical data...
Loading historical data...
Loading historical data...
Loading historical data...
Loading historical data...

Documentation

Showing up to 5 results
|